Location: Unspecified
(51.6250°N, 0.8230°E)
Time: 10:11:25
(UTC+01:00)

Okean 3 - Pass Details

Date: 06 August 2020
Orbit: 576 x 601 km, 82.5° (Epoch: 23 September)

Event Time Altitude Azimuth Distance (km) Brightness Sun altitude
Rises 23:27:28 0° 351° (N) 2,845 8.4 -18.9°
Reaches altitude 10° 23:29:42 10° 355° (N) 1,942 7.2 -19.1°
Maximum altitude 23:33:58 64° 77° (ENE) 667 3.6 -19.3°
Enters shadow 23:35:01 46° 136° (SE) 808 3.7 -19.4°
